Location: ?kun?ru
(16.3916°N, 80.8194°E)
Time: 01:12:33
(UTC+00:00)

CZ-2C R/B - Pass Details

Date: 19 May 2025
Orbit: 663 x 775 km, 98.4° (Epoch: 24 June)

Event Time Altitude Azimuth Distance (km) Brightness Sun altitude
Rises 21:52:19 0° 21° (NNE) 3,002 6.4 -29.1°
Reaches altitude 10° 21:54:37 10° 27° (NNE) 2,082 5.5 -28.6°
Maximum altitude 21:58:58 47° 101° (E) 870 3.0 -27.8°
Enters shadow 21:59:17 47° 114° (ESE) 880 2.9 -27.7°
